Home   Weather   Township of Washington   Past weeks
Flag for USA

Past Weather in Township of Washington, Indiana, USA — Yesterday and Last 2 Weeks

Now
75 °F

Overcast.


Feels Like: 77 °F
Forecast: 72 / 53 °F
Wind: 10 mph from South

Location: Huntingburg Airport

Current Time: Apr 24, 2019 at 6:06:42 pm

Latest Report: Apr 24, 2019 at 4:56 pm


Visibility: 10 mi

Pressure: 29.83 "Hg

Humidity: 60%

Dew Point: 60 °F

Location of Township of WashingtonLocation

Past Weather in Township of Washington — Graph

°F

Township of Washington Temperature Yesterday

Maximum temperature yesterday: 77 °F (at 2:56 pm)
Minimum temperature yesterday: 60 °F (at 7:56 am)
Average temperature yesterday: 67 °F

High & Low Weather Summary for the Past Weeks

 TemperatureHumidityPressure
High80 °F (Apr 11, 3:56 pm)100% (Apr 15, 6:56 am)30.19 "Hg (Apr 15, 6:56 am)
Low31 °F (Apr 15, 6:56 am)31% (Apr 9, 6:56 pm)29.37 "Hg (Apr 14, 11:56 am)
Average57 °F72%29.86 "Hg
* Reported Apr 9 4:56 pm — Apr 24 4:56 pm, Township of Washington. Weather by CustomWeather, © 2019

Note: Actual official high and low records may vary slightly from our data, if they occured in-between our weather recording intervals... More about our weather records

Advertising

Township of Washington Weather History for the Previous 24 Hours

Scroll right to see more
 ConditionsComfort  
Time TempWeatherWind HumidityBarometerVisibility
4:56 pm
Wed, Apr 24
75 °FOvercast.10 mph60%29.83 "Hg10 mi
3:56 pm76 °FScattered clouds.12 mph58%29.84 "Hg10 mi
2:56 pm74 °FMostly cloudy.13 mph62%29.88 "Hg10 mi
1:56 pm75 °FBroken clouds.10 mph64%29.90 "Hg4 mi
12:56 pm73 °FSunny.3 mph66%29.93 "Hg10 mi
11:56 am69 °FSunny.9 mph70%29.95 "Hg10 mi
11:33 am66 °FPassing clouds.7 mph73%29.97 "Hg10 mi
10:56 am65 °FSunny.8 mph76%29.97 "Hg10 mi
9:56 am61 °FSunny.9 mph81%29.98 "Hg10 mi
8:56 am57 °FSunny.9 mph83%29.98 "Hg10 mi
7:56 am55 °FMostly cloudy.7 mph87%29.99 "Hg10 mi
6:56 am53 °FClear.6 mph93%29.97 "Hg10 mi
5:56 am55 °FClear.8 mph93%29.97 "Hg10 mi
4:56 am56 °FClear.7 mph93%29.96 "Hg10 mi
3:56 am57 °FClear.7 mph90%29.97 "Hg10 mi
2:56 am58 °FClear.8 mph87%29.98 "Hg10 mi
1:56 am59 °FPassing clouds.6 mph87%29.98 "Hg10 mi
12:56 am60 °FMostly cloudy.6 mph83%30.00 "Hg10 mi
11:56 pm
Tue, Apr 23
61 °FPassing clouds.5 mph81%29.99 "Hg10 mi
10:56 pm63 °FPassing clouds.7 mph75%30.00 "Hg10 mi
9:56 pm65 °FPassing clouds.6 mph76%29.99 "Hg10 mi
8:56 pm67 °FClear.7 mph76%29.98 "Hg10 mi
7:56 pm69 °FPassing clouds.5 mph73%29.97 "Hg10 mi
6:56 pm72 °FScattered clouds.8 mph68%29.96 "Hg10 mi
Weather by CustomWeather, © 2019

See weather overview